This is the latest recevied weather packets stored in our database for station/object KN6KDD. If no packets are shown the sender has not sent any weather packets the latest 10 day(s).
| Time | Temp. | Humidity | Pressure | Rain* | Wind** | Luminosity | Snow |
|---|---|---|---|---|---|---|---|
| 1777310430 | 12.78° C | 81% | 1356.1 hPa | 0 mm | - | 735 W/m² | - |
| 1777310127 | 12.22° C | 81% | 1356.4 hPa | 0 mm | - | 621 W/m² | - |
| 1777309824 | 12.78° C | 79% | 1356.4 hPa | 0 mm | - | 716 W/m² | - |
| 1777309522 | 12.78° C | 81% | 1356.2 hPa | 0 mm | - | 712 W/m² | - |
| 1777309219 | 13.33° C | 80% | 1356.1 hPa | 0 mm | - | 654 W/m² | - |
| 1777308917 | 12.22° C | 84% | 1356.1 hPa | 0 mm | - | 628 W/m² | - |
| 1777308612 | 13.33° C | 82% | 1356 hPa | 0 mm | - | 624 W/m² | - |
| 1777308308 | 12.22° C | 81% | 1356.1 hPa | 0 mm | - | 651 W/m² | - |
| 1777308003 | 11.67° C | 84% | 1356 hPa | 0 mm | - | 520 W/m² | - |
| 1777307702 | 11.11° C | 86% | 1355.8 hPa | 0 mm | - | 523 W/m² | - |
| 1777307398 | 11.67° C | 86% | 1356.1 hPa | 0 mm | - | 397 W/m² | - |
| 1777307096 | 11.11° C | 86% | 1356.1 hPa | 0 mm | - | 355 W/m² | - |
| 1777306793 | 10.56° C | 87% | 1356.1 hPa | 0 mm | - | 313 W/m² | - |
| 1777306490 | 10.56° C | 89% | 1356 hPa | 0 mm | - | 280 W/m² | - |
| 1777306186 | 10° C | 89% | 1356 hPa | 0 mm | - | 320 W/m² | - |
| 1777305880 | 10.56° C | 89% | 1355.6 hPa | 0 mm | - | 254 W/m² | - |
| 1777305577 | 10° C | 90% | 1355.6 hPa | 0 mm | - | 261 W/m² | - |
| 1777305274 | 10° C | 90% | 1355.8 hPa | 0 mm | - | 235 W/m² | - |
| 1777304972 | 10° C | 92% | 1355.7 hPa | 0 mm | - | 234 W/m² | - |
| 1777304669 | 9.44° C | 91% | 1355.8 hPa | 0 mm | - | 181 W/m² | - |
| 1777304366 | 9.44° C | 91% | 1356 hPa | 0 mm | - | 159 W/m² | - |
| 1777304064 | 9.44° C | 91% | 1355.8 hPa | 0 mm | - | 164 W/m² | - |
| 1777303760 | 9.44° C | 91% | 1355.6 hPa | 0 mm | - | 145 W/m² | - |
| 1777303457 | 8.89° C | 91% | 1355.6 hPa | 0 mm | - | 106 W/m² | - |
| 1777303155 | 9.44° C | 91% | 1355.7 hPa | 0 mm | - | 113 W/m² | - |
* Rain latest hour (hover to see other rain measurements)
** Current wind speed in m/s (hover to see current wind gust speed)